Location: Praha
(50.0830°N, 14.4670°E)
Time: 17:44:02
(UTC+02:00)

ISS - Pass Details

Date: 22 May 2020
Orbit: 417 x 420 km, 51.6° (Epoch: 26 May)

Event Time Altitude Azimuth Distance (km) Brightness Sun altitude
Rises 21:29:15 0° 259° (WSW) 2,361 0.6 -5.5°
Reaches altitude 10° 21:31:21 10° 260° (W) 1,499 -0.4 -5.8°
Maximum altitude 21:34:43 79° 347° (NNW) 433 -3.6 -6.2°
Drops below altitude 10° 21:38:06 10° 75° (ENE) 1,503 -1.2 -6.6°
Sets 21:40:12 0° 77° (ENE) 2,369 -0.3 -6.8°
